User: anonymous   Login
Location: Napier
(39.4830°S, 176.9170°E)
Time: 07:32:22
(UTC+13:00)
Language:

MetOp-B - Orbit

View from above orbital plane
View from above orbital plane
View from above satellite
View from above satellite

Ground track
Ground track

The orbit data is extracted from the following two-line orbital elements,

1 38771U 12049A   19322.63735828 -.00000003  00000-0  18487-4 0  9997
2 38771  98.7239  19.8379 0000324 172.3459 342.7035 14.21483841371925
Epoch (UTC): 18 November 2019 15:17:47
Eccentricity: 0.0000324
inclination: 98.7239°
perigee height: 820 km
apogee height: 820 km
right ascension of ascending node: 19.8379°
argument of perigee: 172.3459°
revolutions per day: 14.21483841
mean anomaly at epoch: 342.7035°
orbit number at epoch: 37192

The dashed part of the orbit path shows where the satellite is in the earth's shadow,  

DLR